TimeCST,TemperatureF,Dew PointF,Humidity,Sea Level PressureIn,VisibilityMPH,Wind Direction,Wind SpeedMPH,Gust SpeedMPH,PrecipitationIn,Events,Conditions,WindDirDegrees,DateUTC
12:53 AM,35.1,23.0,61,30.16,10.0,Calm,Calm,-,N/A,,Overcast,0,2013-01-17 06:53:00
1:53 AM,35.1,24.1,64,30.18,10.0,Calm,Calm,-,N/A,,Overcast,0,2013-01-17 07:53:00
2:53 AM,35.1,24.1,64,30.18,10.0,Calm,Calm,-,N/A,,Overcast,0,2013-01-17 08:53:00
3:53 AM,34.0,25.0,70,30.20,10.0,Calm,Calm,-,N/A,,Overcast,0,2013-01-17 09:53:00
4:53 AM,35.1,25.0,67,30.21,10.0,WNW,4.6,-,N/A,,Overcast,290,2013-01-17 10:53:00
6:53 AM,33.1,26.1,75,30.25,10.0,North,8.1,-,N/A,,Clear,350,2013-01-17 12:53:00
7:53 AM,34.0,28.0,79,30.30,10.0,North,12.7,-,N/A,,Partly Cloudy,350,2013-01-17 13:53:00
8:06 AM,33.8,28.4,81,30.30,10.0,North,12.7,-,N/A,,Mostly Cloudy,350,2013-01-17 14:06:00
8:53 AM,35.1,28.9,78,30.34,10.0,North,13.8,-,N/A,,Scattered Clouds,350,2013-01-17 14:53:00
9:23 AM,35.6,28.4,75,30.35,10.0,North,13.8,-,N/A,,Mostly Cloudy,350,2013-01-17 15:23:00
9:53 AM,36.0,28.9,76,30.36,10.0,North,15.0,-,N/A,,Mostly Cloudy,360,2013-01-17 15:53:00
10:53 AM,36.0,28.0,73,30.37,10.0,North,16.1,-,N/A,,Overcast,350,2013-01-17 16:53:00
11:53 AM,37.9,28.0,68,30.38,10.0,NNW,15.0,19.6,N/A,,Mostly Cloudy,340,2013-01-17 17:53:00
12:22 PM,39.2,26.6,61,30.35,10.0,North,13.8,-,N/A,,Scattered Clouds,350,2013-01-17 18:22:00
12:53 PM,39.0,26.1,60,30.35,10.0,North,11.5,-,N/A,,Clear,360,2013-01-17 18:53:00
1:53 PM,39.9,21.9,49,30.35,10.0,NNW,13.8,-,N/A,,Clear,340,2013-01-17 19:53:00
2:53 PM,41.0,19.9,43,30.37,10.0,NNW,13.8,-,N/A,,Clear,340,2013-01-17 20:53:00
3:53 PM,39.9,19.9,45,30.39,10.0,North,13.8,-,N/A,,Clear,10,2013-01-17 21:53:00
4:53 PM,37.0,21.9,54,30.42,10.0,NNW,9.2,-,N/A,,Clear,330,2013-01-17 22:53:00
5:53 PM,35.1,19.0,52,30.45,10.0,North,10.4,-,N/A,,Clear,350,2013-01-17 23:53:00
6:53 PM,33.1,19.0,56,30.47,10.0,North,6.9,-,N/A,,Clear,350,2013-01-18 00:53:00
7:53 PM,30.9,18.0,59,30.48,10.0,Calm,Calm,-,N/A,,Clear,0,2013-01-18 01:53:00
8:53 PM,28.0,19.9,72,30.50,10.0,Calm,Calm,-,N/A,,Clear,0,2013-01-18 02:53:00
9:53 PM,26.1,19.9,78,30.52,10.0,Calm,Calm,-,N/A,,Clear,0,2013-01-18 03:53:00
10:53 PM,26.1,21.0,81,30.51,10.0,South,3.5,-,N/A,,Clear,170,2013-01-18 04:53:00
11:53 PM,25.0,19.9,81,30.51,10.0,Calm,Calm,-,N/A,,Clear,0,2013-01-18 05:53:00